Tracking 18942 objects as of 18-Jan-2018
HD Live streaming from Space Station
objects crossing your sky now

FENGYUN 1C DEB

Track FENGYUN 1C DEB now!
10-day predictions


NORAD ID: 36255
Int'l Code: 1999-025DWG
Perigee: 754.7 km
Apogee: 860.9 km
Inclination: 99.5 °
Period: 100.9 minutes
Semi major axis: 7178 km
RCS: 0.0095 m2 (small)
Launch date: May 10, 1999
Source: People's Republic of China (PRC)
Launch site: Taiyaun Space Center, China (TSC)

Note: This is SATELLITE DEBRIS
aabbcc
Your satellite tracking list
Your tracking list is empty




NASA's NSSDC Master Catalog

Two Line Element Set (TLE):
1 36255U 99025DWG 18005.18356689 +.00000280 +00000-0 +13131-3 0  9998
2 36255 099.4974 357.9700 0074007 173.1827 248.9993 14.27335765225908
Source of the keplerian elements: AFSPC